This is the latest recevied weather packets stored in our database for station/object KA5FVT. If no packets are shown the sender has not sent any weather packets the latest 10 day(s).
| Time | Temp. | Humidity | Pressure | Rain* | Wind** | Luminosity | Snow |
|---|---|---|---|---|---|---|---|
| 1777628366 | 18.33° C | 95% | 1011.4 hPa | 11.18 mm | - | - | - |
| 1777628066 | 18.33° C | 95% | 1011.8 hPa | 12.19 mm | - | - | - |
| 1777626566 | 18.33° C | 95% | 1009.6 hPa | 20.07 mm | - | - | - |
| 1777626266 | 18.33° C | 95% | 1009.6 hPa | 20.07 mm | - | - | - |
| 1777625970 | 18.33° C | 95% | 1009.6 hPa | 20.07 mm | - | - | - |
| 1777625066 | 18.89° C | 95% | 1010.4 hPa | 19.56 mm | - | - | - |
| 1777623267 | 18.89° C | 95% | 1011.1 hPa | 0.76 mm | - | - | - |
| 1777620869 | 18.89° C | 94% | 1010.4 hPa | 0.25 mm | - | - | - |
| 1777620567 | 18.89° C | 94% | 1010.3 hPa | 0.25 mm | - | - | - |
| 1777619067 | 19.44° C | 94% | 1010.7 hPa | 0 mm | - | - | - |
| 1777617266 | 19.44° C | 93% | 1011 hPa | 1.78 mm | - | - | - |
| 1777616666 | 19.44° C | 94% | 1011.4 hPa | 1.78 mm | - | - | - |
| 1777614566 | 20° C | 93% | 1009.9 hPa | 11.43 mm | - | - | - |
| 1777613069 | 20.56° C | 92% | 1012.5 hPa | 10.92 mm | - | - | - |
| 1777611567 | 21.11° C | 89% | 1012.6 hPa | 4.83 mm | - | - | - |
| 1777610369 | 21.11° C | 87% | 1011.3 hPa | 0 mm | - | - | - |
| 1777607666 | 21.67° C | 85% | 1011.1 hPa | 0 mm | - | - | - |
| 1777602867 | 21.67° C | 84% | 1010.9 hPa | 0 mm | - | - | - |
| 1777602269 | 21.67° C | 84% | 1010.7 hPa | 0 mm | - | - | - |
| 1777601966 | 21.67° C | 84% | 1010.9 hPa | 0 mm | - | - | - |
| 1777601366 | 21.67° C | 84% | 1010.6 hPa | 0 mm | - | - | - |
| 1777601066 | 21.67° C | 84% | 1010.4 hPa | 0 mm | - | - | - |
| 1777598666 | 21.67° C | 83% | 1009.9 hPa | 0 mm | - | - | - |
| 1777590566 | 24.44° C | 76% | 1008.6 hPa | 0 mm | - | - | - |
| 1777587270 | 24.44° C | 77% | 1008.2 hPa | 0 mm | - | - | - |
* Rain latest hour (hover to see other rain measurements)
** Current wind speed in m/s (hover to see current wind gust speed)